Wind_Speed
35 35 35 35 34 33 34 34 33 33 32 32 31 32 31 31 30 30 29 29 29 30 30 30 30 30 30 30 30 30 29 29 29 29 29 28 27 27 27 27 27 27 27
37 37 37 37 36 35 35 36 35 35 34 34 34 34 33 33 33 33 32 31 31 31 32 32 32 33 32 33 32 32 32 32 32 31 31 31 30 30 29 29 29 28 28
40 40 39 39 38 37 37 37 37 37 36 37 37 37 37 36 36 36 35 33 33 33 33 34 34 35 35 35 34 34 34 34 34 34 34 33 32 32 32 31 31 31 30
42 42 42 42 41 40 39 39 39 39 39 39 39 38 38 37 37 38 38 37 36 35 35 36 36 36 37 37 37 37 37 37 37 36 35 35 34 34 34 33 33 33 33
44 44 44 44 43 43 42 41 41 41 41 41 41 40 40 40 40 40 39 39 39 39 38 38 39 39 39 39 39 39 38 39 38 38 37 36 36 35 35 35 36 35 34
45 45 45 45 45 45 44 43 43 43 43 43 42 43 43 43 43 43 42 42 41 41 41 41 41 41 41 41 41 41 41 40 40 40 40 39 38 38 37 37 38 37 37
46 47 47 47 46 47 46 45 45 45 45 45 44 44 45 45 45 45 44 44 44 44 43 43 43 43 43 43 42 43 43 43 43 42 42 42 42 41 40 40 39 39 38
47 48 48 48 48 48 48 48 47 47 47 47 47 46 45 46 46 46 46 46 46 46 45 45 45 45 45 44 45 45 45 46 45 45 45 45 45 44 44 43 42 40 40
49 49 49 49 49 49 49 50 49 50 49 50 50 48 48 48 48 49 48 48 48 48 49 49 48 48 47 47 47 47 47 47 47 47 47 47 47 46 46 45 44 43 42
50 50 51 51 51 50 50 50 50 50 50 50 51 51 51 51 51 51 50 50 50 50 50 50 50 50 50 49 48 48 49 49 49 49 49 49 49 49 48 47 46 45 44
52 52 52 52 52 52 51 51 50 51 50 50 51 52 52 52 53 53 52 52 52 51 51 51 51 51 51 50 50 50 50 50 50 50 50 50 50 50 49 48 48 47 46
53 53 53 54 54 54 54 53 52 52 51 51 52 53 53 53 53 53 53 53 53 53 52 52 52 53 52 51 51 51 51 50 51 51 51 51 52 52 52 51 50 49 49
54 54 54 55 55 56 56 56 55 55 54 53 53 53 54 54 54 54 55 54 53 53 53 53 54 54 54 54 53 53 52 52 52 53 53 53 54 54 53 52 52 51 50
55 56 56 56 57 57 57 57 57 57 57 56 55 54 53 53 54 55 56 56 55 54 54 54 55 55 55 55 54 54 54 54 54 54 54 54 55 55 55 55 54 52 52
55 56 56 57 57 57 57 57 57 57 58 57 56 55 55 54 54 55 55 56 55 54 54 54 55 56 57 56 55 55 55 55 55 55 55 55 56 56 56 56 56 55 54
55 56 56 56 57 57 57 57 57 58 57 57 57 56 56 55 54 54 54 55 55 55 55 54 55 56 57 56 56 56 56 56 56 57 56 56 56 57 58 58 58 57 56
54 55 56 56 56 56 57 57 57 58 58 57 57 56 56 57 56 55 55 55 56 57 57 55 56 56 56 57 57 57 57 57 57 57 57 58 57 57 58 58 59 59 58
53 54 55 55 55 56 56 57 56 57 57 57 57 56 56 56 57 57 56 57 58 59 59 58 57 57 57 57 58 58 57 57 57 57 58 58 58 58 58 58 59 60 60
52 53 53 53 54 56 56 56 56 57 57 57 57 56 56 56 56 57 58 59 59 59 59 59 58 58 57 57 58 57 57 57 58 58 59 59 59 58 59 59 60 60 62
52 53 52 52 53 55 56 56 57 57 57 57 56 56 57 57 58 58 59 60 61 61 61 61 60 59 58 58 58 58 58 59 59 59 59 59 60 60 59 59 60 61 62
52 52 52 53 53 54 55 55 56 56 57 57 57 57 57 58 59 60 60 61 61 62 62 62 61 60 60 59 59 59 60 60 60 60 60 59 60 60 60 60 59 59 60
51 52 53 53 53 54 54 55 56 56 57 57 57 58 58 59 60 60 60 60 61 62 62 62 62 61 61 60 60 60 61 61 61 61 61 61 60 60 60 60 60 60 61
52 53 54 54 54 55 55 56 57 57 57 57 57 58 58 59 60 61 61 61 61 61 61 62 62 62 62 62 62 62 61 62 62 61 63 62 62 61 61 61 61 61 61
51 53 54 54 55 55 55 56 56 56 57 57 57 57 58 58 59 60 60 61 61 61 61 62 62 62 63 63 64 64 63 63 63 62 63 63 62 62 62 62 61 61 61
50 52 53 54 54 55 56 57 57 57 57 57 58 58 58 58 58 59 60 60 60 60 61 61 62 63 63 63 64 64 64 64 63 62 63 63 63 63 62 62 62 62 62
51 51 52 53 54 55 55 56 57 57 57 58 58 58 58 58 58 58 59 59 59 59 60 61 61 61 62 62 62 63 63 63 62 61 61 62 62 62 62 61 61 61 61
Wind_Direction
250 250 252 254 256 257 258 258 258 260 260 258 258 258 258 259 259 259 258 258 257 256 255 254 255 255 254 254 254 254 253 254 256 256 258 259 259 258 259 260 260 262 263
250 251 253 254 256 257 257 258 258 259 259 260 259 258 258 258 258 258 257 257 257 256 255 255 255 256 256 255 256 255 256 258 258 259 260 261 259 259 259 260 260 260 261
250 251 252 254 255 257 258 258 258 260 260 260 259 258 258 258 257 257 257 255 256 257 255 255 255 255 256 256 257 257 257 258 259 260 260 260 261 261 260 261 259 260 261
251 251 252 253 254 256 258 257 258 261 261 259 259 259 259 258 258 258 257 257 257 257 257 258 257 258 257 258 259 258 258 258 259 260 260 260 260 261 261 261 261 261 262
252 253 253 253 253 255 256 257 259 260 261 260 259 259 259 258 258 257 257 257 258 259 259 259 258 259 259 260 260 259 259 259 260 260 260 261 260 261 261 260 261 261 262
253 254 255 255 255 255 256 258 259 259 260 259 260 260 260 259 258 258 258 257 258 258 258 258 259 260 261 261 261 261 260 261 261 261 260 260 260 261 261 262 263 263 262
254 255 255 256 255 256 257 257 259 259 259 259 259 260 259 259 258 258 258 258 258 258 258 258 259 259 261 262 262 263 262 262 261 261 261 260 260 261 262 263 264 263 263
254 255 256 256 257 257 258 258 259 259 259 259 259 259 259 258 258 258 258 258 258 259 259 259 260 260 260 262 263 263 263 263 262 261 261 261 260 260 261 262 263 263 263
255 255 256 257 258 258 259 260 260 259 259 259 259 259 259 259 259 258 259 259 259 259 260 261 261 261 261 262 263 263 263 263 263 262 261 261 260 260 260 261 263 263 263
256 256 257 257 258 259 260 260 260 260 260 259 259 259 259 259 258 258 259 259 259 260 260 261 261 262 262 263 263 264 263 263 263 262 261 261 260 261 260 260 261 261 262
257 257 257 258 258 259 260 261 262 260 260 259 259 259 260 260 259 259 259 259 260 261 261 261 261 261 261 263 263 264 264 263 263 262 261 260 259 258 259 260 260 261 262
257 258 259 259 259 259 260 261 262 262 261 261 260 261 261 262 261 261 260 260 260 260 260 260 261 261 261 262 263 263 264 263 262 262 261 260 259 258 259 260 260 261 262
257 258 259 260 260 261 261 261 261 261 261 261 261 262 262 263 262 262 261 260 259 259 259 259 260 261 261 261 262 262 263 263 262 262 261 259 259 259 259 259 260 260 261
257 258 259 260 261 261 261 261 261 261 262 262 262 262 263 264 263 263 262 261 259 258 259 259 259 259 261 261 261 262 262 262 262 262 261 259 259 259 259 259 259 259 259
259 259 259 260 260 261 261 260 261 262 262 261 261 262 263 263 263 262 262 261 261 259 259 259 259 260 260 260 261 262 263 262 261 261 261 260 260 259 258 258 258 258 258
260 260 260 260 260 259 259 260 261 261 261 261 261 261 261 261 262 262 261 261 261 261 260 259 260 260 260 260 260 261 262 262 261 261 261 261 260 260 259 258 258 257 257
260 261 261 261 260 260 260 260 260 261 261 261 261 262 261 261 261 261 261 262 262 262 262 261 260 260 260 260 260 261 262 261 261 261 261 261 261 260 259 259 258 257 256
261 262 262 261 261 260 260 260 261 260 260 260 261 260 260 260 261 261 261 261 262 263 262 262 261 260 261 262 261 262 262 262 261 261 261 261 260 260 260 259 259 258 257
262 262 261 260 260 260 260 260 261 260 260 260 260 260 260 260 261 261 261 262 262 262 262 262 261 261 261 261 261 262 263 262 261 262 261 260 260 260 261 260 259 257 257
262 262 261 261 261 261 261 261 261 261 261 261 260 260 261 261 262 262 262 262 262 262 262 262 262 261 261 261 262 263 263 262 262 262 262 261 261 261 261 261 259 258 257
262 261 260 261 261 261 261 261 262 261 261 261 261 262 262 262 263 263 263 263 263 263 262 262 262 262 262 262 262 263 264 264 263 262 262 261 261 261 260 259 259 259 258
261 260 260 262 262 261 261 261 262 261 261 261 262 262 263 263 263 264 265 265 265 265 264 263 263 263 263 263 262 263 264 265 264 263 262 261 261 260 259 258 259 258 258
262 261 261 262 262 262 261 262 262 262 262 262 262 263 263 263 264 265 265 265 265 265 264 263 263 263 263 263 263 263 264 265 264 263 262 261 260 260 260 260 259 259 258
264 263 262 262 263 262 262 262 262 262 262 262 263 263 263 263 264 265 266 266 265 264 264 263 263 263 263 263 263 264 263 264 264 264 263 262 260 260 260 259 259 259 258
266 265 264 263 263 263 263 262 262 261 262 262 263 263 264 264 265 266 266 266 265 265 264 264 264 264 264 264 263 264 264 263 263 264 263 262 260 259 259 259 259 259 259
267 267 266 264 263 263 263 263 263 262 262 262 263 264 265 265 265 265 265 266 266 265 265 264 263 264 264 263 263 264 264 263 263 263 262 261 260 259 258 259 259 259 259
Height
5789 5790 5791 5793 5794 5795 5797 5798 5799 5800 5801 5802 5803 5804 5805 5805 5806 5807 5807 5808 5809 5810 5811 5812 5813 5815 5817 5818 5820 5821 5822 5823 5824 5825 5825 5826 5827 5828 5828 5828 5829 5829 5830
5781 5782 5783 5785 5786 5788 5789 5790 5791 5792 5793 5795 5796 5797 5797 5798 5799 5800 5800 5801 5802 5803 5804 5805 5806 5808 5809 5811 5812 5814 5815 5816 5817 5818 5819 5820 5820 5821 5822 5822 5823 5823 5824
5772 5774 5775 5776 5778 5779 5780 5782 5783 5784 5785 5786 5787 5788 5789 5790 5791 5792 5793 5794 5794 5795 5797 5798 5799 5800 5801 5803 5804 5806 5807 5808 5809 5811 5812 5813 5813 5814 5815 5816 5816 5817 5817
5763 5764 5766 5767 5769 5770 5771 5773 5774 5776 5776 5778 5778 5779 5780 5781 5782 5783 5785 5786 5787 5788 5789 5790 5791 5792 5793 5795 5796 5797 5799 5800 5801 5802 5803 5805 5806 5807 5807 5808 5809 5809 5810
5753 5754 5756 5757 5759 5760 5762 5763 5764 5766 5767 5768 5769 5770 5771 5772 5773 5774 5776 5777 5778 5779 5781 5782 5783 5783 5785 5786 5787 5788 5790 5791 5792 5793 5795 5796 5797 5798 5799 5800 5801 5801 5802
5742 5744 5745 5747 5748 5750 5752 5753 5754 5756 5757 5758 5759 5760 5761 5762 5763 5765 5766 5767 5769 5770 5771 5772 5773 5774 5775 5776 5777 5779 5780 5782 5783 5784 5785 5787 5788 5789 5790 5791 5792 5793 5793
5731 5733 5734 5736 5738 5739 5741 5742 5743 5744 5746 5747 5748 5749 5750 5752 5753 5754 5756 5757 5758 5760 5761 5762 5763 5764 5765 5766 5767 5768 5770 5771 5773 5774 5775 5777 5778 5780 5781 5782 5783 5784 5784
5719 5721 5723 5724 5726 5727 5729 5730 5732 5733 5734 5735 5737 5738 5739 5741 5742 5744 5745 5746 5747 5749 5750 5751 5753 5754 5755 5755 5756 5757 5758 5760 5762 5763 5765 5766 5768 5769 5771 5772 5773 5774 5775
5707 5708 5710 5712 5714 5715 5717 5718 5719 5721 5722 5723 5724 5726 5727 5729 5731 5732 5734 5735 5736 5737 5739 5740 5741 5742 5743 5744 5745 5746 5747 5748 5749 5751 5753 5754 5756 5758 5759 5761 5762 5763 5765
5694 5696 5697 5699 5701 5703 5704 5705 5706 5708 5709 5710 5711 5712 5714 5716 5718 5720 5722 5722 5724 5725 5726 5727 5729 5730 5730 5731 5733 5734 5735 5735 5737 5738 5740 5742 5744 5745 5747 5749 5750 5751 5753
5681 5682 5684 5686 5688 5689 5691 5692 5693 5694 5696 5697 5698 5699 5700 5702 5704 5706 5709 5710 5711 5712 5713 5714 5715 5716 5717 5719 5720 5721 5722 5723 5724 5726 5727 5729 5730 5732 5734 5736 5737 5739 5741
5667 5669 5670 5672 5674 5675 5677 5678 5680 5681 5682 5683 5684 5685 5687 5688 5689 5691 5694 5696 5697 5699 5699 5700 5701 5702 5704 5705 5706 5708 5709 5710 5711 5713 5714 5716 5717 5719 5721 5723 5724 5726 5728
5653 5654 5656 5658 5659 5661 5663 5664 5665 5667 5668 5669 5670 5671 5672 5673 5675 5676 5678 5680 5682 5684 5685 5686 5687 5688 5689 5691 5692 5694 5695 5696 5697 5699 5700 5702 5704 5705 5707 5709 5711 5713 5715
5638 5640 5641 5643 5644 5646 5648 5649 5650 5652 5653 5654 5655 5657 5658 5658 5659 5660 5662 5664 5667 5670 5671 5672 5672 5673 5674 5676 5677 5679 5680 5682 5683 5684 5686 5688 5690 5691 5693 5695 5697 5699 5701
5623 5624 5626 5627 5629 5631 5632 5634 5635 5636 5638 5639 5640 5642 5643 5643 5644 5645 5646 5648 5651 5654 5657 5658 5658 5659 5659 5661 5662 5663 5664 5666 5668 5669 5671 5673 5675 5676 5678 5680 5682 5684 5687
5608 5609 5610 5612 5613 5615 5616 5618 5620 5621 5622 5623 5625 5626 5627 5628 5629 5630 5631 5633 5634 5637 5640 5643 5643 5643 5644 5645 5646 5647 5648 5650 5652 5654 5655 5657 5659 5660 5662 5664 5667 5669 5671
5593 5594 5595 5596 5598 5599 5601 5602 5604 5605 5606 5608 5609 5610 5611 5613 5614 5615 5616 5617 5618 5620 5623 5626 5626 5627 5627 5629 5630 5631 5632 5634 5635 5637 5639 5640 5642 5644 5646 5648 5650 5653 5655
5577 5578 5579 5580 5582 5584 5585 5586 5588 5590 5591 5592 5593 5595 5596 5597 5598 5599 5601 5602 5603 5604 5606 5609 5610 5611 5611 5612 5613 5615 5616 5617 5619 5621 5622 5623 5625 5627 5629 5631 5634 5636 5638
5562 5563 5564 5565 5566 5568 5569 5571 5572 5574 5575 5576 5577 5579 5580 5581 5582 5584 5585 5586 5586 5587 5589 5591 5593 5594 5595 5596 5597 5598 5599 5600 5602 5603 5605 5606 5608 5610 5611 5613 5616 5618 5621
5547 5547 5548 5549 5551 5552 5553 5555 5556 5558 5559 5560 5562 5563 5564 5565 5566 5567 5568 5568 5569 5570 5572 5573 5575 5577 5578 5579 5579 5581 5583 5584 5585 5586 5587 5589 5591 5592 5594 5596 5599 5601 5603
5532 5532 5533 5534 5535 5536 5538 5539 5540 5542 5543 5544 5546 5547 5548 5548 5549 5549 5550 5551 5551 5552 5554 5555 5557 5559 5561 5561 5563 5564 5565 5566 5568 5568 5570 5571 5573 5575 5576 5578 5580 5583 5585
5517 5517 5518 5519 5520 5521 5522 5523 5524 5526 5527 5528 5529 5530 5531 5531 5531 5531 5532 5533 5533 5534 5535 5537 5539 5541 5543 5543 5544 5545 5546 5548 5550 5552 5551 5554 5555 5557 5559 5561 5563 5565 5567
5502 5502 5503 5504 5505 5505 5506 5507 5508 5510 5511 5512 5513 5513 5514 5514 5514 5514 5514 5515 5515 5515 5517 5518 5521 5523 5524 5525 5526 5528 5528 5529 5531 5532 5532 5535 5537 5539 5541 5543 5545 5547 5549
5487 5487 5487 5488 5489 5489 5490 5491 5492 5493 5494 5495 5496 5496 5497 5497 5496 5497 5497 5497 5497 5498 5499 5500 5503 5504 5504 5505 5506 5507 5508 5510 5512 5513 5513 5516 5519 5521 5523 5524 5526 5529 5531
5472 5471 5471 5472 5473 5473 5473 5474 5475 5476 5477 5479 5479 5479 5479 5480 5480 5479 5479 5480 5480 5481 5480 5482 5483 5484 5485 5486 5487 5487 5489 5490 5493 5496 5495 5496 5500 5502 5504 5507 5508 5510 5512
5457 5456 5456 5456 5456 5457 5457 5457 5458 5459 5461 5462 5462 5462 5462 5462 5462 5461 5461 5462 5463 5463 5463 5464 5465 5466 5467 5468 5468 5469 5470 5471 5473 5477 5478 5478 5480 5482 5486 5489 5490 5492 5494